Location: Beckerzeel
(50.8863°N, 4.2361°E)
Time: 07:12:32
(UTC+00:00)

Daily predictions for brighter satellites

Satellite Brightness Start Highest point End
(mag) Time Altitude Azimuth Time Altitude Azimuth Time Altitude Azimuth
NOSS 3-1 (A) 4.0 18:11:35 10° WSW 18:17:11 61° NW 18:23:53 10° NE
CSL-04 Rocket 3.7 18:12:14 10° SSE 18:17:37 69° ENE 18:23:06 10° NNW
SJ 16-02 1.7 18:15:19 10° SSW 18:19:41 72° WNW 18:24:06 10° NNE
OBJECT-B 3.0 18:20:37 10° ENE 18:21:13 10° ENE 18:21:49 10° NE
Cosmos 1937 Rocket 3.7 18:18:26 10° S 18:23:31 52° ESE 18:28:35 10° NNE
NOSS 8 (E) 4.1 18:20:27 10° SW 18:23:37 70° SE 18:26:38 10° NE
Abrixas rocket 2.4 18:26:27 10° WSW 18:29:10 42° SSE 18:31:43 11° E
Okean 2 Rocket 4.0 18:26:53 10° SSE 18:30:43 29° E 18:34:35 10° NNE
NOSS 2-2 (E) 3.8 18:29:05 10° S 18:32:16 32° ESE 18:35:50 10° ENE
Cosmos 1464 Rocket 4.4 18:26:49 10° SSE 18:32:25 40° E 18:38:07 10° NNE
SL-08 RB Rocket 4.2 18:29:08 10° SE 18:33:26 41° ENE 18:37:43 10° N
USA 116 3.4 18:30:55 10° NNE 18:34:17 65° ESE 18:38:01 10° S
Okean 2 3.9 18:30:45 10° NNW 18:34:54 64° W 18:39:01 10° S
Cosmos 1544 3.9 18:32:19 10° SSW 18:35:55 57° WNW 18:39:32 10° N
Okean-O 4.0 18:32:46 10° S 18:37:01 44° W 18:41:17 10° NNW
ATLAS 2AS CENTAUR R/B 4.5 18:36:15 10° ESE 18:38:45 12° E 18:41:15 10° E
Cosmos 1300 Rocket 4.2 18:35:22 10° SSE 18:39:17 33° E 18:43:17 10° NNE
NOSS 2-2 (D) 3.9 18:37:49 10° S 18:40:57 31° ESE 18:44:25 10° ENE
CENTAUR R/B 3.4 18:36:40 10° NW 18:44:14 56° NE 18:51:59 13° ESE
USA 102 4.2 18:40:56 10° SE 18:45:04 18° SE 18:45:14 18° SE
Iridium 4 Rocket 3.9 18:40:27 10° SSW 18:45:26 70° W 18:50:56 10° N
Cosmos 2082 Rocket 4.2 18:43:14 10° N 18:46:12 14° NNE 18:49:09 10° ENE
YAOGAN 1 3.7 18:42:10 10° S 18:46:21 48° W 18:50:34 10° NNW
Cosmos 1975 3.3 18:42:56 10° SSW 18:47:00 68° WNW 18:51:05 10° N
Cosmos 1437 4.0 18:46:42 10° NNW 18:49:33 40° W 18:52:23 10° SSW
DMSP B5D1-3 4.5 18:44:35 10° NNE 18:49:43 84° ESE 18:54:49 10° SSW
Cosmos 1674 3.8 18:46:42 10° NNE 18:49:58 25° ENE 18:52:09 16° ESE
H-2A R/B 2.1 18:45:29 10° SSE 18:50:27 81° WSW 18:55:35 10° NNW
ATLAS 3B R/B 3.7 18:45:02 10° NW 18:51:05 33° NNE 18:56:56 11° E
CZ-4 R/B 3.3 18:47:55 10° SSW 18:51:48 35° W 18:55:41 10° NNW
Cosmos 1048 Rocket 4.3 18:47:59 10° NNW 18:53:11 53° ENE 18:58:02 12° SE
Cosmos 1536 Rocket 3.9 18:50:17 10° N 18:54:34 45° ENE 18:58:50 10° SSE
ISS -2.5 18:51:58 10° SSW 18:54:47 25° SE 18:56:09 19° ESE
USA 238 DEB 3.9 18:48:44 10° NW 18:55:54 74° NE 19:02:30 14° SE
USA 238 3.9 18:48:50 10° NW 18:56:00 73° NE 19:02:35 14° SE
In-Cosmos 22 4.0 18:51:51 10° N 18:57:08 66° ENE 19:02:26 10° SSE
Cosmos 1891 Rocket 4.4 18:53:45 10° S 18:59:48 65° E 19:05:47 10° NNE
ARGOS 3.2 18:58:38 10° SSE 19:04:00 82° WSW 19:09:25 10° NNW
Cosmos 1025 Rocket 3.0 19:00:13 10° N 19:04:36 72° ENE 19:08:59 10° SSE
CZ-2C R/B 3.0 18:59:38 10° NNE 19:04:54 44° E 19:10:14 10° S
Cosmos 1782 Rocket 4.4 19:02:54 10° SSW 19:07:14 56° WNW 19:11:39 10° N
Cosmos 1707 2.9 19:04:02 10° NNW 19:07:53 74° W 19:11:42 10° S
KORONAS-FOTON 4.3 19:07:55 10° N 19:11:40 40° ENE 19:13:36 23° SE
Cosmos 2151 Rocket 3.7 19:07:44 10° S 19:12:03 51° E 19:16:25 10° NNE
USA 186 1.7 19:13:02 11° S 19:15:59 82° WSW 19:19:15 10° NNW
CREW DRAGON DEMO-1 DEB 2.7 19:13:51 10° W 19:16:53 80° N 19:18:00 36° E
Ariane Rocket 3.0 19:13:51 10° SSE 19:18:55 87° ENE 19:24:02 10° NNW
SJ-6B 2.6 19:16:15 15° SSE 19:19:15 76° ENE 19:23:01 10° N
Cosmos 1844 4.2 19:16:07 10° S 19:21:11 34° ESE 19:26:14 10° NE
FREGAT/IRIS 2.0 19:20:39 38° SSE 19:21:29 81° ENE 19:24:05 10° N
Nadezhda 4 Rocket 3.9 19:15:56 10° N 19:22:06 79° E 19:28:13 10° SSE
Cosmos 494 Rocket 4.1 19:17:43 10° NNW 19:22:57 60° ENE 19:26:06 24° SE
Cosmos 2263 Rocket 3.0 19:17:39 10° SW 19:23:07 55° NW 19:28:38 10° NNE
Cosmos 1766 4.4 19:23:36 25° ENE 19:23:36 25° ENE 19:26:24 10° NNE
NOSS 3-2 (A) 4.1 19:16:11 10° NW 19:23:34 83° SW 19:30:19 17° SE
NOSS 2-2 (C) 3.0 19:21:52 10° SW 19:25:23 80° SE 19:29:26 10° NE
MOS 1 4.3 19:21:55 10° SSE 19:27:38 89° ENE 19:33:23 10° NNW
Lacrosse 4 Rocket 3.5 19:26:39 10° N 19:28:53 14° NNE 19:30:19 12° NE
Cosmos 1844 Rocket 2.8 19:24:30 10° S 19:29:49 48° ESE 19:35:10 10° NE
Cosmos 2034 Rocket 4.0 19:23:35 10° S 19:29:56 74° E 19:36:16 10° NNE
Cosmos 2298 Rocket 4.0 19:26:57 10° S 19:32:14 67° ESE 19:37:32 10° NNE
ATLAS CENTAUR R/B 4.0 19:33:37 10° NW 19:35:21 13° NNW 19:37:05 10° N
SPOT 3 Rocket 3.6 19:32:57 25° SE 19:35:53 61° ENE 19:40:59 10° N
USA 234 3.6 19:37:13 12° ENE 19:42:48 39° SE 19:48:50 10° SSW
Resurs 01 Rocket 1.8 19:42:54 39° ESE 19:44:08 52° ENE 19:48:29 10° N
SWAS 4.4 19:40:02 10° NNW 19:44:22 89° ENE 19:45:52 40° SSE
Lacrosse 5 rocket 2.7 19:42:39 10° WNW 19:46:44 38° N 19:49:28 19° NE
MetOp-A 4.3 19:42:59 12° S 19:47:59 71° WSW 19:53:21 10° NNW
Cosmos 1833 Rocket 3.5 19:44:31 10° NNW 19:49:44 36° NE 19:51:25 30° E
SPOT 5 4.5 19:49:28 21° ENE 19:50:04 21° NE 19:53:58 10° N
Cosmos 372 Rocket 4.4 19:46:17 10° SW 19:51:29 65° WNW 19:56:43 10° NNE
OBJECT-B 0.9 19:52:33 57° SSW 19:53:03 72° WSW 19:56:18 10° NNW
Meteor 1-15 Rocket 4.1 19:48:43 10° S 19:54:20 81° E 20:00:06 10° NNE
Cosmos 1626 2.3 19:52:42 10° N 19:56:03 52° NE 19:56:03 52° NE
NOSS 3-2 (C) 4.1 19:50:59 10° NW 19:58:23 80° SW 20:03:03 29° SSE
DMSP B5D2-2 4.1 19:53:21 10° NNE 19:58:41 85° WNW 20:03:58 10° SSW
ARIANE 5 R/B 2.9 20:01:02 46° ENE 20:01:08 46° ENE 20:05:19 10° N
Cosmos 2150 Rocket 4.1 19:56:34 10° SSW 20:01:57 81° WNW 20:07:27 10° NNE
Cosmos 1634 Rocket 3.9 19:59:03 26° SSE 20:02:32 60° E 20:08:38 10° NNE
Abrixas rocket 3.7 20:01:29 10° W 20:03:00 26° WSW 20:03:00 26° WSW
BREEZE-M TANK 3.4 19:57:48 10° WSW 20:04:28 39° S 20:04:38 39° S
Landsat 7 4.1 20:09:07 49° ENE 20:09:20 49° ENE 20:13:57 10° N
Cosmos 2285 Rocket 3.9 20:03:30 10° SSW 20:09:46 73° ESE 20:16:07 10° NNE
Cosmos 1125 Rocket 3.4 20:04:27 10° SSW 20:09:46 83° ESE 20:15:08 10° NNE
Okean 1 Rocket 3.0 20:08:19 35° S 20:10:11 90° W 20:14:43 10° N
ERS-1 Rocket 3.8 20:17:26 34° ENE 20:17:26 34° ENE 20:21:46 10° N
Resurs 1-3 4.3 20:18:56 32° SSW 20:20:36 49° W 20:24:54 10° NNW
Cosmos 1092 Rocket 4.3 20:15:29 10° NNW 20:21:34 64° W 20:25:37 22° S
Meteor 2-19 Rocket 4.5 20:15:38 10° N 20:21:41 57° ENE 20:22:38 52° ESE
Meteor 2-5 Rocket 4.0 20:17:14 10° NNW 20:22:49 68° W 20:25:27 32° S
Cosmos 1805 3.8 20:24:12 49° WSW 20:24:52 58° WNW 20:28:46 10° N
Cosmos 1674 4.4 20:22:05 10° NNW 20:25:30 31° W 20:27:00 23° SW
Cosmos 2026 Rocket 4.1 20:21:28 10° NNW 20:27:49 75° W 20:30:53 33° S
ATLAS 2AS CENTAUR R/B 3.1 20:20:29 10° SSW 20:28:01 50° ESE 20:35:33 10° NE
Cosmos 2098 Rocket 4.2 20:21:59 10° N 20:29:04 54° ENE 20:30:00 50° E
ISS -1.5 20:27:56 10° WSW 20:29:07 20° WSW 20:29:07 20° WSW
Cosmos 2082 Rocket 2.7 20:26:33 10° NNW 20:31:54 42° NE 20:32:16 42° ENE
BREEZE-M DEB (TANK) 4.5 20:29:52 10° WSW 20:34:19 79° SSE 20:54:25 10° ENE
CENTAUR R/B 3.5 20:27:27 10° NW 20:35:20 60° SW 20:39:10 35° S
Cosmos 1733 4.0 20:36:18 48° NNW 20:36:18 48° NNW 20:39:21 10° N
Meteor 1-22 Rocket 4.2 20:34:25 42° S 20:36:34 88° E 20:42:40 10° NNE
Cosmos 1892 Rocket 3.7 20:33:48 10° NNW 20:37:39 68° NNW 20:37:39 68° NNW
CZ-2C R/B 3.9 20:33:52 10° N 20:38:17 67° WNW 20:38:59 57° WSW
COSMOS 2406 3.0 20:36:57 10° NNW 20:42:40 87° WSW 20:43:09 76° SSE
ATLAS 3B R/B 2.7 20:35:55 10° NW 20:42:47 77° NE 20:44:10 59° ESE
SPOT 1/Viking Rocket 3.4 20:43:21 78° ENE 20:43:21 78° ENE 20:48:28 10° NNW
SL-14 R/B 4.2 20:39:59 10° NNW 20:43:14 46° WNW 20:43:14 46° WNW
CZ-2C R/B 4.2 20:40:08 10° N 20:45:08 36° WNW 20:50:11 10° SW
Cosmos 2279 Rocket 3.8 20:44:34 65° SSE 20:45:30 78° E 20:51:48 10° NNE
Meteor 1-24 Rocket 4.1 20:40:11 10° NNW 20:45:34 58° W 20:47:08 43° SSW
Cosmos 1269 Rocket 4.5 20:42:04 10° NNW 20:47:15 55° WSW 20:48:00 50° SW
Cosmos 2142 Rocket 4.4 20:47:06 51° S 20:48:51 88° W 20:55:08 10° N
Spot 2 Rocket 3.4 20:51:07 81° WNW 20:51:07 81° WNW 20:56:02 10° NNW
Exosat Rocket 4.2 20:50:47 10° SW 20:56:01 53° WNW 21:00:57 10° NNE
Terra 2.9 21:02:36 36° NNE 21:02:36 36° NNE 21:05:46 10° N
Meteor 1-21 Rocket 4.4 20:57:56 10° N 21:03:07 65° NE 21:03:07 65° NE
Cosmos 2278 Rocket 3.9 21:07:57 22° NE 21:07:57 22° NE 21:09:55 10° NE
Cosmos 1844 4.5 20:59:40 10° SW 21:05:11 50° NW 21:10:41 10° NNE
Lacrosse 4 Rocket 3.1 21:04:24 10° NNW 21:06:37 30° NNW 21:06:37 30° NNW
Cosmos 909 Rocket 3.9 21:02:41 10° NW 21:09:22 77° NE 21:09:31 76° ENE
Cosmos 1844 Rocket 4.0 21:08:42 10° WSW 21:13:51 37° NW 21:19:04 10° NNE
ATLAS CENTAUR R/B 4.1 21:14:58 10° N 21:15:51 11° N 21:15:56 11° N
Resurs 01 Rocket 3.7 21:20:28 21° W 21:20:55 21° W 21:24:21 10° NW
Cosmos 2251 Rocket 4.0 21:15:31 10° NNW 21:19:53 59° NNW 21:19:53 59° NNW
USA 234 3.1 21:24:44 57° NE 21:26:14 86° NNW 21:32:48 10° WSW
Lacrosse 5 rocket 3.2 21:22:18 10° WNW 21:25:05 33° NW 21:25:05 33° NW
SPOT 5 3.7 21:28:43 54° NNW 21:28:43 54° NNW 21:32:52 10° NNW
Cosmos 2266 Rocket 4.0 21:24:01 10° NNW 21:29:34 71° NW 21:29:34 71° NW
Cosmos 1833 Rocket 3.4 21:28:25 10° NW 21:33:07 48° W 21:33:07 48° W
NOSS 3-4 (A) 4.1 21:57:18 48° NNE 21:57:18 48° NNE 22:02:13 10° NE
NOSS 3-4 (C) 4.2 21:57:31 47° NNE 21:57:31 47° NNE 22:02:20 10° NE
ERS-1 Rocket 4.5 21:57:27 33° WNW 21:57:27 33° WNW 22:00:45 10° NNW
Cosmos 2082 Rocket 3.6 22:10:45 10° NW 22:14:06 31° WNW 22:14:06 31° WNW
ATLAS 2AS CENTAUR R/B 3.4 22:11:10 10° WSW 22:19:03 61° NW 22:26:47 10° NE
ATLAS 3B R/B 4.1 22:27:06 10° NW 22:31:25 28° W 22:31:25 28° W
COSMOS 2455 4.5 22:39:35 27° NNE 22:39:35 27° NNE 22:42:10 10° NE
Terra 4.3 22:41:29 17° NW 22:41:29 17° NW 22:43:05 10° NW
Cosmos 2278 Rocket 3.7 22:49:46 32° NNW 22:49:46 32° NNW 22:53:55 10° NNE
Cosmos 2227 Rocket 4.5 23:22:32 10° N 23:26:17 18° NNE 23:27:48 16° NE
CZ-4C R/B 3.8 23:34:17 32° NNE 23:34:17 32° NNE 23:37:57 10° NE
USA 229 DEB 4.4 23:35:16 10° NW 23:40:43 52° NNW 23:40:43 52° NNW
USA 229 4.4 23:35:22 10° NW 23:40:49 53° NNW 23:40:49 53° NNW
